Location: Trementina
(35.4589°N, 104.4243°W)
Time: 10:52:18
(UTC+00:00)

X-37B - Pass Details

Date: 26 November 2022
Orbit: 277 x 277 km, 45.0° (Epoch: 01 November)

Event Time Altitude Azimuth Distance (km) Brightness Sun altitude
Exits shadow 11:56:46 21° 127° (SE) 690 2.5 -21.5°
Drops below altitude 10° 11:57:45 10° 125° (SE) 1,093 3.8 -21.3°
Sets 11:59:39 0° 124° (SE) 1,901 5.3 -20.9°
